Location: La Brionne
(46.1728°N, 1.7849°E)
Time: 12:57:59
(UTC+00:00)

Cosmos 2219 Rocket - Pass Details

Date: 26 October 2021
Orbit: 826 x 848 km, 71.0° (Epoch: 01 December)

Event Time Altitude Azimuth Distance (km) Brightness Sun altitude
Rises 17:38:20 0° 154° (SSE) 3,353 5.1 -9.4°
Reaches altitude 10° 17:41:42 10° 133° (SE) 2,428 4.2 -10.0°
Maximum altitude 17:44:54 16° 98° (E) 2,057 3.6 -10.5°
Enters shadow 17:46:34 14° 78° (ENE) 2,171 3.7 -10.8°
